Dewpoint
22 21 20 19 18 21 20 22 22 23 27 29 31 35 34 34 32 33 32 33 33 35 49 54 54 53 50 47 45 43 42 41 41 41 41 41 41 40 39 38 38 37 36 35
20 20 22 20 22 23 23 23 22 22 19 20 22 27 32 34 35 34 33 33 31 32 45 53 53 50 47 45 43 42 41 40 41 40 40 40 39 38 37 37 36 35 34 34
15 20 19 19 17 19 20 16 14 15 19 20 17 20 23 23 30 35 34 33 33 33 42 51 52 49 45 44 42 41 40 41 40 40 39 39 38 37 35 35 34 33 34 33
16 17 11 13 14 14 13 11 10 11 15 17 17 14 17 25 27 30 36 36 34 33 41 48 51 49 45 42 42 41 40 40 40 39 37 37 36 34 34 33 32 33 33 32
16 13 11 12 10 11 11 10 11 14 16 18 15 13 19 32 35 34 35 35 35 34 36 44 49 47 43 41 41 41 40 40 39 38 36 35 34 33 32 32 32 31 31 32
18 14 9 9 11 13 13 10 12 10 9 11 13 13 14 23 41 42 42 41 36 36 39 45 47 43 41 40 41 40 39 39 38 37 36 34 33 32 32 32 31 31 31 32
18 16 16 15 15 15 14 14 16 16 15 15 15 17 19 31 44 43 42 41 40 39 42 45 45 41 40 40 41 40 39 38 37 36 34 33 32 32 31 31 31 31 31 32
18 16 12 17 16 15 17 18 19 19 19 20 28 37 41 42 43 41 40 39 40 38 44 45 43 40 39 40 40 39 38 36 35 34 33 32 31 31 31 31 31 31 31 32
16 14 18 23 23 24 25 24 24 24 25 30 36 38 40 38 41 41 38 37 40 40 43 44 41 40 39 39 39 37 35 34 33 32 32 32 31 31 31 32 32 32 32 31
20 21 22 23 27 26 29 32 34 35 32 27 27 30 39 40 41 41 38 38 39 41 40 38 38 38 37 37 36 35 34 33 32 31 31 32 32 32 32 32 32 32 31 30
22 24 24 22 23 29 33 30 33 36 36 35 35 33 35 39 40 40 38 38 37 36 35 35 35 35 36 35 35 34 33 32 32 32 31 31 31 32 32 33 33 32 31 30
21 22 22 23 25 28 30 33 35 37 37 37 37 38 39 38 39 38 38 37 37 36 35 35 34 34 34 34 33 33 32 32 32 32 32 31 31 30 32 33 32 31 30 29
24 25 25 25 26 29 32 34 37 40 41 41 42 40 40 41 39 38 37 35 35 34 34 34 34 33 34 34 34 34 33 32 32 31 31 30 29 28 27 29 31 31 30 28
26 27 25 25 30 32 34 37 38 38 41 42 42 40 39 38 38 37 36 35 35 34 34 34 34 35 35 35 35 34 33 32 31 31 30 29 28 28 27 26 25 26 28 28
27 28 28 29 34 36 37 38 37 39 41 39 38 38 38 38 38 36 35 35 35 35 35 35 34 34 36 35 34 33 32 31 31 31 30 29 28 27 27 26 26 26 26 27
28 33 34 34 34 34 36 39 38 39 40 39 38 39 39 38 37 36 36 36 34 33 34 34 34 35 36 35 34 32 32 32 32 31 30 29 28 27 27 25 26 26 26 27
33 32 34 34 35 35 37 39 39 39 41 38 39 39 39 37 36 35 35 36 34 34 34 34 34 35 35 34 33 32 32 32 32 31 31 30 28 28 28 27 26 27 27 28
36 37 36 36 35 35 37 37 37 41 40 39 39 37 33 32 31 31 32 32 33 33 34 34 35 34 33 33 33 32 31 31 32 31 31 31 31 30 29 28 27 27 27 27
34 34 33 34 35 35 36 36 35 37 37 37 36 34 34 33 32 31 32 32 32 31 31 33 32 32 32 32 31 31 31 31 31 31 31 31 30 29 28 27 27 26 26 26
32 32 32 32 33 33 33 33 34 34 34 34 34 33 32 32 33 33 33 32 33 31 32 32 32 31 31 30 31 31 31 31 31 31 30 30 28 27 27 26 26 26 26 25
30 30 30 31 31 32 32 33 34 33 33 34 33 32 31 32 32 32 31 30 31 33 32 32 31 31 30 30 30 30 31 31 31 30 29 29 28 27 26 26 26 26 26 25
30 30 30 30 30 30 31 32 32 33 33 32 32 32 31 31 31 31 32 31 32 32 32 32 32 31 31 31 30 30 30 31 30 30 29 28 27 26 26 26 26 26 25 25
30 30 30 30 30 30 31 31 32 32 32 32 32 32 31 31 31 30 28 32 32 32 32 32 32 31 32 31 30 29 29 30 30 29 29 28 27 27 26 26 26 25 25 25
30 31 30 31 30 30 29 31 31 32 32 32 32 32 32 31 31 32 32 32 32 32 32 31 32 32 32 31 30 29 29 30 30 29 28 28 27 27 27 26 26 26 25 24
30 30 29 29 29 29 30 31 31 31 32 32 32 32 32 32 31 31 32 32 32 32 31 32 33 33 32 31 30 29 29 30 30 29 28 28 27 27 27 26 26 25 25 24
30 30 29 29 29 30 30 30 30 31 31 30 31 31 31 32 32 32 32 31 31 31 31 32 32 32 32 31 30 30 29 29 29 29 29 28 27 27 27 26 26 26 25 25
29 29 28 28 30 31 31 30 30 30 31 31 29 31 31 31 31 31 30 30 30 30 31 31 31 31 31 30 30 30 29 29 29 29 29 28 27 27 27 26 26 26 25 24
Wind_Speed
21 22 20 21 21 19 17 15 10 12 19 36 26 23 27 22 14 13 22 21 13 16 21 19 21 20 17 18 20 23 25 26 26 24 24 25 24 22 21 19 17 17 16 13
24 21 20 23 20 19 18 21 21 32 33 37 35 26 30 26 24 26 29 24 15 14 19 24 24 25 24 24 25 26 26 25 24 26 24 23 22 21 20 19 18 16 14 14
18 8 12 15 27 20 19 21 19 25 24 29 33 15 18 25 25 28 27 26 28 18 20 25 27 26 29 31 27 28 27 26 26 26 26 24 24 23 21 21 18 16 15 14
18 14 22 15 18 21 28 31 27 28 29 30 30 28 22 22 27 30 26 27 29 30 24 26 27 26 21 24 27 28 27 27 26 27 28 25 24 23 21 18 18 16 13 13
15 22 20 21 24 18 17 34 28 27 28 33 33 31 31 15 22 24 23 26 27 24 24 25 27 27 28 26 27 27 30 30 29 29 29 26 24 21 16 17 15 13 12 12
9 13 17 20 26 28 27 33 36 36 37 34 31 24 32 21 14 25 24 23 23 26 22 23 27 30 33 33 34 33 35 34 30 28 29 26 24 23 16 15 14 12 12 11
25 16 14 30 31 14 21 32 34 25 25 31 29 24 35 27 17 19 21 27 28 21 22 24 24 28 32 32 36 33 32 29 29 28 30 30 25 20 19 18 15 12 12 11
11 17 25 7 17 20 23 24 25 25 27 30 27 23 30 26 17 19 23 25 26 20 21 24 30 32 30 28 22 28 30 29 27 25 22 20 23 19 19 20 18 16 14 12
16 14 15 3 11 20 20 25 29 24 28 23 20 25 27 27 16 21 24 23 18 24 25 24 29 34 35 31 32 31 30 28 27 24 22 21 24 19 18 16 17 18 17 15
23 30 30 27 19 27 17 15 17 25 32 32 29 25 34 26 18 17 17 12 3 13 18 18 16 20 23 26 26 30 29 27 26 27 24 18 19 17 15 15 13 14 16 14
28 29 23 33 29 23 20 24 31 30 28 22 20 26 32 27 17 13 6 3 7 17 18 22 26 26 25 27 31 30 27 24 23 22 20 19 13 14 13 8 13 15 14 14
35 32 23 25 27 28 25 22 26 28 28 25 23 27 22 19 13 10 10 10 15 15 24 25 27 27 26 28 33 35 30 24 19 20 18 17 17 15 11 11 13 12 14 14
35 28 29 31 34 31 28 28 21 22 20 21 23 20 17 16 12 13 14 16 17 20 25 26 28 29 27 28 31 31 29 24 21 18 18 19 17 17 18 13 16 14 12 10
20 20 21 26 23 22 20 15 16 24 21 19 11 10 18 14 13 16 17 16 22 22 25 30 30 28 26 27 27 26 24 23 19 18 17 17 16 16 15 16 15 11 9 8
25 20 24 24 17 20 18 14 20 20 8 7 7 10 12 13 14 16 19 22 23 25 26 29 30 25 22 23 26 25 23 19 18 18 16 17 17 16 14 15 14 14 10 8
13 8 7 10 16 19 14 13 15 14 5 5 8 10 13 17 19 18 19 22 30 28 26 27 26 23 22 24 23 20 18 20 18 18 19 18 17 16 15 15 14 12 12 11
9 10 9 13 14 15 9 16 13 14 9 8 11 13 15 16 17 18 16 14 18 22 26 27 24 21 21 22 20 18 18 19 19 18 17 17 17 17 16 16 15 12 12 11
8 9 10 12 17 19 10 5 5 6 12 11 11 16 13 16 16 17 19 19 19 21 22 21 21 20 20 19 18 18 18 17 16 17 16 17 16 16 16 15 14 15 13 12
8 9 10 8 8 5 4 5 5 13 17 18 19 15 12 19 21 18 20 21 20 22 15 19 23 21 20 21 19 17 18 17 17 17 16 17 17 16 16 15 14 14 14 13
9 6 5 6 11 9 11 10 12 18 18 22 20 19 18 16 20 19 17 15 11 14 20 21 20 19 20 21 19 16 16 16 16 16 17 16 17 17 15 16 15 15 14 13
8 8 9 9 12 12 14 12 13 18 15 16 22 18 17 15 17 19 20 18 14 16 19 21 18 17 17 19 18 16 15 15 16 15 17 16 17 17 16 15 15 14 13 13
10 10 11 11 12 14 14 13 13 19 18 18 19 19 19 17 17 17 12 15 15 19 15 15 16 16 16 17 15 15 15 15 15 15 15 16 17 17 16 15 15 14 14 13
10 11 12 13 13 14 15 15 15 14 16 14 16 16 15 12 11 17 19 11 13 16 15 14 18 20 18 15 14 14 14 15 14 14 15 15 16 16 16 16 15 15 14 14
7 10 11 11 12 14 16 13 13 13 15 16 16 13 14 15 13 11 15 15 19 17 14 16 18 19 16 15 15 14 15 13 13 13 14 15 15 15 16 16 15 14 14 14
7 6 8 10 11 10 11 11 12 13 14 15 15 14 13 9 7 13 14 15 17 15 14 17 17 16 13 13 14 13 14 13 13 13 14 14 15 15 16 15 15 15 14 13
4 6 6 7 7 7 7 7 8 9 10 11 11 11 11 11 12 13 13 14 14 15 14 14 13 13 12 13 14 14 13 14 15 13 14 14 15 15 16 16 16 15 14 14
9 10 9 7 5 6 8 8 8 8 8 9 11 10 12 11 12 13 14 13 13 13 13 13 12 12 12 13 13 13 12 13 13 14 13 14 14 15 15 15 14 14 14 15
Wind_Direction
239 252 263 265 279 277 278 265 269 283 296 282 289 303 294 293 297 297 280 276 246 247 222 200 179 178 174 169 164 159 156 156 154 143 137 136 136 133 131 131 130 132 135 135
261 259 255 263 259 262 268 269 264 263 262 261 280 276 277 279 269 266 268 279 264 243 216 200 189 185 176 170 167 162 159 154 144 140 137 135 130 130 130 130 134 138 141 146
279 266 271 265 257 255 247 246 248 260 265 289 295 294 297 305 297 270 267 261 259 241 219 201 195 184 183 177 166 162 154 149 148 144 139 138 135 136 140 143 144 146 150 152
261 281 262 252 248 243 251 261 266 261 263 268 271 284 290 288 279 280 263 260 256 253 227 210 195 190 174 166 164 158 151 148 145 144 143 141 141 145 144 147 149 148 155 158
240 251 265 290 271 256 251 259 255 252 258 261 272 283 285 289 280 263 270 261 248 245 233 210 187 177 165 161 160 156 154 155 155 151 147 145 145 144 139 141 143 151 159 160
217 241 255 251 250 246 258 266 264 255 259 268 271 272 278 270 279 306 306 289 269 256 230 190 181 168 165 165 164 167 164 164 157 152 148 148 145 144 143 143 147 153 159 161
233 242 263 254 256 259 265 260 258 258 262 263 261 253 272 283 288 275 285 284 275 253 212 190 172 167 173 173 176 169 158 153 151 151 149 146 144 145 146 144 147 155 154 158
220 231 257 221 252 216 231 256 266 272 267 272 271 267 262 274 276 285 293 288 268 234 206 174 167 168 171 178 160 152 146 145 142 139 135 135 135 139 141 145 151 153 150 148
210 228 247 249 294 277 270 264 268 273 266 267 280 277 268 280 274 283 297 297 265 226 194 178 175 177 171 163 152 145 142 139 134 131 133 137 136 141 144 153 154 154 155 146
261 256 264 269 270 278 281 288 295 293 279 273 269 289 274 274 273 283 295 304 298 145 147 139 137 138 136 136 137 136 134 131 129 128 128 126 129 136 157 151 159 160 145 149
259 269 273 274 270 268 266 288 289 281 277 272 276 262 263 267 283 269 231 135 105 118 111 109 110 114 122 124 125 119 118 119 120 121 122 121 128 135 134 164 168 154 148 153
253 257 249 276 278 267 271 268 280 276 276 270 264 259 250 262 275 216 181 143 129 139 126 120 116 117 119 122 123 122 115 116 120 119 124 122 122 114 95 124 122 123 134 149
251 262 261 264 271 274 267 267 284 279 267 281 260 237 248 256 224 172 154 146 143 143 129 126 123 122 124 125 123 122 122 126 128 132 133 136 137 130 120 90 97 113 126 132
264 252 275 271 264 264 270 254 294 302 262 261 257 243 247 221 142 146 139 138 133 133 132 126 124 123 123 119 120 123 126 126 132 135 136 136 135 130 131 128 125 115 113 137
261 259 246 262 271 274 271 270 316 299 175 189 152 142 138 138 132 129 132 135 134 131 128 125 123 122 121 122 121 124 130 135 136 136 138 133 129 129 125 125 128 136 136 119
274 261 256 270 286 291 287 276 295 299 196 172 111 111 118 119 121 125 133 141 138 137 131 123 119 120 121 122 122 126 130 137 139 139 135 133 134 135 136 141 144 146 149 139
299 288 300 298 295 292 305 298 293 286 183 138 110 92 95 103 109 116 121 123 125 127 125 123 126 125 123 125 131 129 130 134 135 136 138 142 145 151 148 153 159 160 156 149
331 310 300 291 284 281 235 220 311 166 142 137 119 114 113 109 108 109 105 102 107 110 116 126 129 126 122 124 127 131 134 137 137 139 141 143 146 143 145 146 144 141 135 135
329 314 324 334 350 29 74 126 116 115 112 106 114 117 117 114 112 109 111 115 121 121 120 123 121 121 123 126 126 130 129 135 134 138 140 139 138 138 137 136 135 134 137 132
349 345 23 43 55 56 87 75 104 102 111 114 112 109 109 113 116 112 107 104 110 125 126 121 119 124 123 120 118 123 130 135 135 137 138 138 138 137 136 138 139 136 133 131
22 22 44 55 69 65 66 77 103 106 103 118 121 119 117 111 110 115 117 114 117 115 117 120 124 122 120 122 119 123 129 132 134 136 137 136 134 134 137 142 139 134 133 130
30 45 52 56 67 68 63 72 85 97 103 108 110 118 115 110 103 91 88 121 124 120 119 118 121 122 125 120 121 124 129 129 130 133 135 137 139 139 140 143 139 138 134 136
43 44 48 54 67 71 65 63 67 87 99 103 110 113 110 108 116 124 126 123 116 118 115 120 130 129 123 120 126 128 127 126 131 135 137 140 140 143 143 143 140 135 136 138
59 61 56 53 60 66 70 65 79 86 91 89 89 98 110 114 91 94 117 124 125 123 128 133 135 133 128 130 131 131 130 129 131 134 136 137 142 142 138 136 139 138 141 140
116 77 70 67 64 60 66 71 74 76 83 84 87 90 93 79 111 132 126 125 129 126 126 131 132 134 128 128 129 132 133 133 135 139 143 145 144 142 137 138 141 144 144 147
126 117 98 100 106 108 94 82 88 88 94 95 91 92 89 94 104 113 113 118 119 122 123 129 128 126 130 133 132 134 135 139 141 141 141 143 142 139 139 140 142 146 150 152
109 111 104 98 97 126 134 132 127 124 111 112 110 109 113 112 113 114 116 120 125 127 127 126 127 130 134 136 134 135 138 138 138 140 143 142 142 141 143 145 146 147 150 152